Find Starlink 32694

NORAD ID: 62494 Int'l Des: 2025-003 Owner: SPXS Country: US Constellation: starlink operational
LEOCIRCULAR

当前视图

正在加载3D地球...

About Starlink 32694

Starlink 32694 (NORAD 62494) is a starlink constellation satellite (v2 mini) launched Jan 6, 2025 by SPXS of US. It operates in LEO, CIRCULAR orbit with a mass of 730.00 kg.

即将过境

Passes for default location (London). Set your location on the main map for personalized predictions.

高度历史

Loading altitude history...

两行轨道根数

1 62494U 25003H 26237.51031637 .00025851 00000-0 94515-3 0 9999
2 62494 43.0008 55.2868 0002769 279.9792 80.0747 15.27595610 92496
Epoch: Aug 25, 2026 • Age: 13 hours

当前状态

高度 487.0 km
远地点 / 近地点 N/A
速度 7.62 km/s
星下点 -20.76°S, 104.2°W
发射日期 Jan 6, 2025
运行时间 1.6 years
类型 internet

技术详情

分类 Payload
质量 730.00 kg
干质量 700.00 kg
总质量 730.00 kg
长度 0.30 m
直径 4.10 m
跨度 29.00 m
形状 Box + pan
制造商 SPXS
平台类型 Starlink V2M
阶段状态 In Orbit
所有者/国家 SPXS/US

Most Searched